| time (UTC) | temp F | wind direction | speed knots | gust knots | rain 1hr in | rain 24hr in | rain mn in | humidity % | barometer mb |
| 20260504192237 | 83 | 164 | 0.9 | 2.6 | 0.00 | 0.00 | 0.00 | 63 | 1015.3 |
| 20260504191735 | 82 | 189 | 2.6 | 5.2 | 0.00 | 0.00 | 0.00 | 60 | 1015.5 |
| 20260504191232 | 82 | 166 | 2.6 | 4.3 | 0.00 | 0.00 | 0.00 | 61 | 1015.3 |
| 20260504190727 | 81 | 178 | 4.3 | 5.2 | 0.00 | 0.00 | 0.00 | 64 | 1015.3 |
| 20260504190224 | 82 | 119 | 3.5 | 4.3 | 0.00 | 0.00 | 0.00 | 59 | 1015.6 |
| 20260504185720 | 82 | 148 | 2.6 | 2.6 | 0.00 | 0.00 | 0.00 | 63 | 1015.5 |
| 20260504185217 | 82 | 177 | 1.7 | 2.6 | 0.00 | 0.00 | 0.00 | 62 | 1015.4 |
| 20260504184713 | 82 | 178 | 3.5 | 7.8 | 0.00 | 0.00 | 0.00 | 61 | 1015.5 |
| 20260504184209 | 82 | 171 | 3.5 | 5.2 | 0.00 | 0.00 | 0.00 | 61 | 1015.6 |
| 20260504183705 | 82 | 207 | 3.5 | 5.2 | 0.00 | 0.00 | 0.00 | 62 | 1015.6 |
| 20260504183202 | 82 | 150 | 2.6 | 4.3 | 0.00 | 0.00 | 0.00 | 60 | 1015.7 |
| 20260504182700 | 82 | 148 | 1.7 | 2.6 | 0.00 | 0.00 | 0.00 | 63 | 1015.7 |
| 20260504182157 | 82 | 161 | 5.2 | 6.1 | 0.00 | 0.00 | 0.00 | 63 | 1015.8 |
| 20260504181655 | 82 | 146 | 4.3 | 5.2 | 0.00 | 0.00 | 0.00 | 61 | 1015.7 |
| 20260504181152 | 81 | 160 | 3.5 | 4.3 | 0.00 | 0.00 | 0.00 | 62 | 1016.0 |
| 20260504180651 | 82 | 187 | 4.3 | 6.1 | 0.00 | 0.00 | 0.00 | 61 | 1015.9 |
| 20260504180149 | 82 | 164 | 4.3 | 5.2 | 0.00 | 0.00 | 0.00 | 61 | 1016.0 |
| 20260504175646 | 83 | 160 | 3.5 | 5.2 | 0.00 | 0.00 | 0.00 | 60 | 1016.1 |
| 20260504175143 | 83 | 199 | 2.6 | 2.6 | 0.00 | 0.00 | 0.00 | 57 | 1016.2 |
| 20260504174641 | 82 | 158 | 2.6 | 4.3 | 0.00 | 0.00 | 0.00 | 61 | 1016.2 |
| 20260504174137 | 81 | 154 | 2.6 | 4.3 | 0.00 | 0.00 | 0.00 | 59 | 1016.4 |
| 20260504173635 | 81 | 174 | 1.7 | 2.6 | 0.00 | 0.00 | 0.00 | 59 | 1016.4 |
| 20260504173132 | 82 | 185 | 4.3 | 7.8 | 0.00 | 0.00 | 0.00 | 58 | 1016.6 |
| 20260504172628 | 82 | 164 | 4.3 | 5.2 | 0.00 | 0.00 | 0.00 | 59 | 1016.5 |
| 20260504172125 | 82 | 156 | 3.5 | 7.0 | 0.00 | 0.00 | 0.00 | 60 | 1016.5 |
| 20260504171621 | 82 | 161 | 0.9 | 1.7 | 0.00 | 0.00 | 0.00 | 59 | 1016.7 |
| 20260504171119 | 83 | 138 | 5.2 | 6.1 | 0.00 | 0.00 | 0.00 | 59 | 1016.7 |
| 20260504170615 | 84 | 119 | 4.3 | 6.1 | 0.00 | 0.00 | 0.00 | 58 | 1016.8 |
| 20260504170113 | 84 | 145 | 4.3 | 6.1 | 0.00 | 0.00 | 0.00 | 59 | 1016.8 |
| 20260504150958 | 79 | 164 | 4.3 | 6.1 | 0.00 | 0.00 | 0.00 | 63 | 1017.3 |
| 20260504150455 | 80 | 157 | 2.6 | 2.6 | 0.00 | 0.00 | 0.00 | 63 | 1017.5 |
| 20260504140921 | 75 | 170 | 1.7 | 2.6 | 0.00 | 0.00 | 0.00 | 71 | 1016.9 |
| 20260504140418 | 75 | 154 | 1.7 | 1.7 | 0.00 | 0.00 | 0.00 | 73 | 1017.1 |
| 20260504130343 | 63 | 142 | 0.0 | 0.0 | 0.00 | 0.00 | 0.00 | 95 | 1017.0 |
| 20260504120306 | 56 | 149 | 0.0 | 0.0 | 0.00 | 0.00 | 0.00 | 97 | 1016.7 |
| 20260504110230 | 55 | 149 | 0.0 | 0.0 | 0.00 | 0.00 | 0.00 | 97 | 1016.6 |
| 20260504100154 | 56 | 149 | 0.0 | 0.0 | 0.00 | 0.00 | 0.00 | 96 | 1017.1 |
| 20260504090116 | 56 | 149 | 0.0 | 0.0 | 0.00 | 0.00 | 0.00 | 94 | 1017.4 |
| 20260504081546 | 57 | 149 | 0.0 | 0.0 | 0.00 | 0.00 | 0.00 | 92 | 1017.5 |
| 20260504081042 | 57 | 149 | 0.0 | 0.0 | 0.00 | 0.00 | 0.00 | 92 | 1017.8 |
| 20260504080539 | 57 | 148 | 0.0 | 0.0 | 0.00 | 0.00 | 0.00 | 92 | 1017.9 |
| 20260504050352 | 57 | 147 | 0.0 | 0.0 | 0.00 | 0.00 | 0.00 | 89 | 1019.7 |
| 20260504045849 | 57 | 148 | 0.0 | 0.0 | 0.00 | 0.00 | 0.00 | 89 | 1019.8 |
| 20260504045349 | 57 | 148 | 0.0 | 0.0 | 0.00 | 0.00 | 0.00 | 88 | 1019.7 |
| 20260504044847 | 58 | 148 | 0.0 | 0.0 | 0.00 | 0.00 | 0.00 | 88 | 1019.9 |
| 20260504044344 | 58 | 147 | 0.0 | 0.0 | 0.00 | 0.00 | 0.00 | 88 | 1019.9 |
| 20260504043841 | 58 | 147 | 0.0 | 0.0 | 0.00 | 0.00 | 0.00 | 88 | 1019.8 |
| 20260504043338 | 58 | 147 | 0.0 | 0.0 | 0.00 | 0.00 | 0.00 | 88 | 1019.9 |
| 20260504042835 | 58 | 147 | 0.0 | 0.0 | 0.00 | 0.00 | 0.00 | 87 | 1019.8 |
| 20260504042332 | 58 | 147 | 0.0 | 0.0 | 0.00 | 0.00 | 0.00 | 87 | 1019.9 |
| 20260504041828 | 58 | 147 | 0.0 | 0.0 | 0.00 | 0.00 | 0.00 | 87 | 1019.7 |
| 20260504041324 | 58 | 147 | 0.0 | 0.0 | 0.00 | 0.00 | 0.00 | 86 | 1019.5 |
| 20260504040821 | 58 | 147 | 0.0 | 0.0 | 0.00 | 0.00 | 0.00 | 86 | 1019.6 |
| 20260504040318 | 58 | 147 | 0.0 | 0.0 | 0.00 | 0.00 | 0.00 | 85 | 1019.8 |
| 20260504035814 | 59 | 147 | 0.0 | 0.0 | 0.00 | 0.00 | 0.00 | 85 | 1019.9 |
| 20260504035312 | 59 | 147 | 0.0 | 0.0 | 0.00 | 0.00 | 0.00 | 84 | 1019.8 |
| 20260504034809 | 59 | 147 | 0.0 | 0.0 | 0.00 | 0.00 | 0.00 | 84 | 1019.8 |
| 20260504034306 | 59 | 147 | 0.0 | 0.0 | 0.00 | 0.00 | 0.00 | 83 | 1019.8 |
| 20260504033803 | 59 | 147 | 0.0 | 0.0 | 0.00 | 0.00 | 0.00 | 82 | 1019.8 |
| 20260504033301 | 59 | 148 | 0.0 | 0.0 | 0.00 | 0.00 | 0.00 | 82 | 1019.9 |
| 20260504032757 | 60 | 147 | 0.0 | 0.0 | 0.00 | 0.00 | 0.00 | 81 | 1019.7 |
| 20260504032254 | 60 | 147 | 0.0 | 0.0 | 0.00 | 0.00 | 0.00 | 80 | 1019.7 |
| 20260504031751 | 60 | 147 | 0.0 | 0.0 | 0.00 | 0.00 | 0.00 | 80 | 1019.7 |
| 20260504031249 | 60 | 147 | 0.0 | 0.0 | 0.00 | 0.00 | 0.00 | 79 | 1019.7 |
| 20260504030744 | 61 | 147 | 0.0 | 0.0 | 0.00 | 0.00 | 0.00 | 78 | 1019.7 |
| 20260504030242 | 61 | 147 | 0.0 | 0.0 | 0.00 | 0.00 | 0.00 | 77 | 1019.6 |
| 20260504025738 | 62 | 147 | 0.0 | 0.0 | 0.00 | 0.00 | 0.00 | 75 | 1019.7 |
| 20260504025235 | 62 | 146 | 0.0 | 0.0 | 0.00 | 0.00 | 0.00 | 74 | 1019.8 |
| 20260504024732 | 63 | 147 | 0.0 | 0.0 | 0.00 | 0.00 | 0.00 | 73 | 1019.7 |
| 20260504024228 | 63 | 147 | 0.0 | 0.0 | 0.00 | 0.00 | 0.00 | 72 | 1019.8 |
| 20260504023726 | 63 | 147 | 0.0 | 0.0 | 0.00 | 0.00 | 0.00 | 71 | 1019.8 |
| 20260504023221 | 63 | 148 | 0.0 | 0.0 | 0.00 | 0.00 | 0.00 | 72 | 1019.9 |
| 20260504022718 | 63 | 148 | 0.0 | 0.0 | 0.00 | 0.00 | 0.00 | 71 | 1019.5 |
| 20260504022214 | 64 | 146 | 0.0 | 0.0 | 0.00 | 0.00 | 0.00 | 71 | 1019.5 |
| 20260504021712 | 64 | 145 | 0.0 | 0.0 | 0.00 | 0.00 | 0.00 | 71 | 1019.6 |
| 20260504021209 | 64 | 143 | 0.0 | 0.0 | 0.00 | 0.00 | 0.00 | 70 | 1019.6 |
| 20260504020705 | 65 | 145 | 0.0 | 0.0 | 0.00 | 0.00 | 0.00 | 70 | 1019.7 |
| 20260504020201 | 65 | 147 | 0.0 | 0.0 | 0.00 | 0.00 | 0.00 | 68 | 1019.7 |
| 20260504015658 | 65 | 147 | 0.0 | 0.0 | 0.00 | 0.00 | 0.00 | 69 | 1019.8 |
| 20260504015154 | 65 | 144 | 0.0 | 0.0 | 0.00 | 0.00 | 0.00 | 69 | 1019.6 |
| 20260504014650 | 65 | 130 | 0.0 | 0.9 | 0.00 | 0.00 | 0.00 | 69 | 1019.5 |
| 20260504014147 | 66 | 138 | 0.9 | 0.9 | 0.00 | 0.00 | 0.00 | 67 | 1019.6 |
| 20260504013645 | 66 | 145 | 0.0 | 0.0 | 0.00 | 0.00 | 0.00 | 66 | 1019.7 |
| 20260504013142 | 66 | 145 | 0.0 | 0.0 | 0.00 | 0.00 | 0.00 | 65 | 1019.8 |
| 20260504012639 | 66 | 152 | 0.0 | 0.0 | 0.00 | 0.00 | 0.00 | 66 | 1019.7 |
| 20260504012137 | 67 | 154 | 0.0 | 0.0 | 0.00 | 0.00 | 0.00 | 65 | 1019.7 |
| 20260504011633 | 67 | 147 | 0.0 | 0.0 | 0.00 | 0.00 | 0.00 | 64 | 1019.6 |
| 20260504011130 | 68 | 142 | 0.0 | 0.0 | 0.00 | 0.00 | 0.00 | 64 | 1019.5 |
| 20260504010626 | 68 | 146 | 0.0 | 0.0 | 0.00 | 0.00 | 0.00 | 62 | 1019.9 |
| 20260504010122 | 68 | 147 | 0.0 | 0.0 | 0.00 | 0.00 | 0.00 | 62 | 1019.7 |
| 20260504005619 | 68 | 145 | 0.0 | 0.0 | 0.00 | 0.00 | 0.00 | 63 | 1019.7 |
| 20260504005116 | 69 | 144 | 0.9 | 0.9 | 0.00 | 0.00 | 0.00 | 62 | 1019.5 |
| 20260504004614 | 69 | 145 | 0.0 | 0.9 | 0.00 | 0.00 | 0.00 | 60 | 1019.7 |
| 20260504004111 | 69 | 149 | 0.0 | 0.0 | 0.00 | 0.00 | 0.00 | 60 | 1019.7 |
| 20260504003607 | 70 | 146 | 0.9 | 0.9 | 0.00 | 0.00 | 0.00 | 58 | 1019.5 |
| 20260504003104 | 70 | 147 | 0.9 | 0.9 | 0.00 | 0.00 | 0.00 | 58 | 1019.4 |
| 20260504002600 | 71 | 130 | 0.0 | 0.9 | 0.00 | 0.00 | 0.00 | 58 | 1019.5 |
| 20260504002058 | 71 | 167 | 0.9 | 1.7 | 0.00 | 0.00 | 0.00 | 56 | 1019.5 |
| 20260504001555 | 72 | 130 | 0.9 | 0.9 | 0.00 | 0.00 | 0.00 | 55 | 1019.5 |
| 20260504001051 | 73 | 170 | 0.9 | 0.9 | 0.00 | 0.00 | 0.00 | 53 | 1019.6 |
| 20260504000549 | 74 | 137 | 3.5 | 4.3 | 0.00 | 0.00 | 0.00 | 51 | 1019.6 |
| 20260504000046 | 77 | 150 | 1.7 | 1.7 | 0.00 | 0.00 | 0.00 | 48 | 1019.8 |
| 20260503235544 | 78 | 123 | 1.7 | 1.7 | 0.00 | 0.00 | 0.00 | 46 | 1019.6 |
| 20260503235041 | 78 | 145 | 1.7 | 1.7 | 0.00 | 0.00 | 0.00 | 46 | 1019.6 |
| 20260503234538 | 78 | 130 | 1.7 | 2.6 | 0.00 | 0.00 | 0.00 | 47 | 1019.9 |
| 20260503234037 | 78 | 148 | 1.7 | 1.7 | 0.00 | 0.00 | 0.00 | 46 | 1019.9 |
| 20260503233533 | 79 | 158 | 2.6 | 2.6 | 0.00 | 0.00 | 0.00 | 45 | 1019.9 |
| 20260503233029 | 79 | 133 | 1.7 | 1.7 | 0.00 | 0.00 | 0.00 | 46 | 1019.8 |
| 20260503232526 | 79 | 156 | 2.6 | 4.3 | 0.00 | 0.00 | 0.00 | 44 | 1020.0 |
| 20260503232023 | 80 | 168 | 2.6 | 6.1 | 0.00 | 0.00 | 0.00 | 42 | 1019.9 |
| 20260503231521 | 81 | 132 | 2.6 | 4.3 | 0.00 | 0.00 | 0.00 | 42 | 1020.0 |
| 20260503231018 | 82 | 152 | 0.9 | 1.7 | 0.00 | 0.00 | 0.00 | 43 | 1020.2 |
| 20260503230514 | 81 | 142 | 0.0 | 0.0 | 0.00 | 0.00 | 0.00 | 43 | 1020.2 |
| 20260503230012 | 80 | 161 | 2.6 | 2.6 | 0.00 | 0.00 | 0.00 | 42 | 1020.3 |
| 20260503225509 | 80 | 145 | 0.9 | 0.9 | 0.00 | 0.00 | 0.00 | 43 | 1020.1 |
| 20260503225004 | 80 | 155 | 1.7 | 1.7 | 0.00 | 0.00 | 0.00 | 43 | 1020.1 |
| 20260503224501 | 80 | 140 | 0.9 | 0.9 | 0.00 | 0.00 | 0.00 | 42 | 1020.4 |
| 20260503223959 | 81 | 114 | 4.3 | 6.1 | 0.00 | 0.00 | 0.00 | 41 | 1020.4 |
| 20260503223457 | 81 | 118 | 0.0 | 0.9 | 0.00 | 0.00 | 0.00 | 40 | 1020.6 |
| 20260503222952 | 80 | 286 | 0.9 | 1.7 | 0.00 | 0.00 | 0.00 | 42 | 1020.6 |
| 20260503222451 | 82 | 155 | 1.7 | 2.6 | 0.00 | 0.00 | 0.00 | 41 | 1020.6 |
| 20260503221948 | 83 | 145 | 2.6 | 2.6 | 0.00 | 0.00 | 0.00 | 41 | 1020.5 |
| 20260503221446 | 83 | 144 | 2.6 | 2.6 | 0.00 | 0.00 | 0.00 | 40 | 1020.4 |
| 20260503220943 | 84 | 121 | 2.6 | 4.3 | 0.00 | 0.00 | 0.00 | 40 | 1020.4 |
| 20260503220439 | 82 | 146 | 0.9 | 1.7 | 0.00 | 0.00 | 0.00 | 42 | 1020.5 |
| 20260503215936 | 84 | 164 | 0.9 | 1.7 | 0.00 | 0.00 | 0.00 | 38 | 1020.5 |
| 20260503215433 | 83 | 146 | 0.9 | 0.9 | 0.00 | 0.00 | 0.00 | 39 | 1020.7 |
| 20260503214931 | 81 | 151 | 1.7 | 2.6 | 0.00 | 0.00 | 0.00 | 41 | 1020.8 |
| 20260503214429 | 83 | 160 | 0.0 | 0.0 | 0.00 | 0.00 | 0.00 | 39 | 1020.9 |
| 20260503213926 | 84 | 142 | 2.6 | 2.6 | 0.00 | 0.00 | 0.00 | 41 | 1020.7 |
| 20260503213424 | 83 | 148 | 0.9 | 0.9 | 0.00 | 0.00 | 0.00 | 40 | 1020.8 |
| 20260503212920 | 82 | 153 | 0.9 | 0.9 | 0.00 | 0.00 | 0.00 | 41 | 1021.0 |
| 20260503212418 | 82 | 152 | 2.6 | 2.6 | 0.00 | 0.00 | 0.00 | 42 | 1020.9 |
| 20260503211915 | 81 | 140 | 1.7 | 2.6 | 0.00 | 0.00 | 0.00 | 40 | 1021.1 |
| 20260503211412 | 82 | 161 | 1.7 | 1.7 | 0.00 | 0.00 | 0.00 | 42 | 1021.2 |
| 20260503210907 | 82 | 154 | 0.9 | 1.7 | 0.00 | 0.00 | 0.00 | 44 | 1021.1 |
| 20260503210404 | 83 | 148 | 3.5 | 4.3 | 0.00 | 0.00 | 0.00 | 41 | 1021.2 |
| 20260503205858 | 82 | 105 | 1.7 | 1.7 | 0.00 | 0.00 | 0.00 | 42 | 1021.2 |
| 20260503205355 | 83 | 116 | 1.7 | 2.6 | 0.00 | 0.00 | 0.00 | 42 | 1021.1 |
| 20260503204852 | 81 | 160 | 0.9 | 0.9 | 0.00 | 0.00 | 0.00 | 44 | 1021.3 |
| 20260503204349 | 82 | 160 | 1.7 | 2.6 | 0.00 | 0.00 | 0.00 | 41 | 1021.2 |
| 20260503203847 | 82 | 163 | 1.7 | 1.7 | 0.00 | 0.00 | 0.00 | 42 | 1021.5 |
| 20260503203344 | 82 | 146 | 2.6 | 4.3 | 0.00 | 0.00 | 0.00 | 42 | 1021.6 |
| 20260503202841 | 82 | 180 | 4.3 | 5.2 | 0.00 | 0.00 | 0.00 | 41 | 1021.7 |
| 20260503202339 | 83 | 166 | 2.6 | 4.3 | 0.00 | 0.00 | 0.00 | 42 | 1021.7 |
| 20260503201837 | 82 | 121 | 1.7 | 1.7 | 0.00 | 0.00 | 0.00 | 41 | 1021.7 |
| 20260503201333 | 82 | 187 | 4.3 | 7.0 | 0.00 | 0.00 | 0.00 | 39 | 1022.0 |
| 20260503200831 | 83 | 173 | 1.7 | 1.7 | 0.00 | 0.00 | 0.00 | 42 | 1021.9 |
| 20260503200327 | 81 | 94 | 0.9 | 1.7 | 0.00 | 0.00 | 0.00 | 47 | 1022.0 |
| 20260503195824 | 82 | 152 | 2.6 | 2.6 | 0.00 | 0.00 | 0.00 | 41 | 1022.1 |
| 20260503195321 | 82 | 105 | 3.5 | 5.2 | 0.00 | 0.00 | 0.00 | 43 | 1022.1 |
| 20260503194819 | 82 | 136 | 3.5 | 4.3 | 0.00 | 0.00 | 0.00 | 47 | 1022.2 |
| 20260503194314 | 83 | 149 | 3.5 | 5.2 | 0.00 | 0.00 | 0.00 | 43 | 1022.1 |
| 20260503193810 | 82 | 154 | 4.3 | 6.1 | 0.00 | 0.00 | 0.00 | 42 | 1022.1 |
| 20260503193306 | 82 | 130 | 3.5 | 4.3 | 0.00 | 0.00 | 0.00 | 42 | 1022.3 |
| 20260503192802 | 83 | 138 | 1.7 | 2.6 | 0.00 | 0.00 | 0.00 | 46 | 1022.4 |